Brownwood, TX

10:17 AM CDT on May 27, 2017 (GMT -0500)
Brownwood Regional

Weather History for KBWD - January, 2014

Change the Weather History Date:

Wednesday, January 8, 2014

  Actual Average (KABI) Record (KABI)
Temperature  
Mean Temperature 50 °F -  
Max Temperature 62 °F 55 °F 88 °F (1969)
Min Temperature 39 °F 32 °F -3 °F (1886)
Degree Days  
Heating Degree Days 14    
Moisture  
Dew Point 39 °F    
Average Humidity 73    
Maximum Humidity 100    
Minimum Humidity 48    
Precipitation  
Precipitation 0.00 in - - ()
Sea Level Pressure  
Sea Level Pressure 30.11 in    
Wind  
Wind Speed 12 mph (SSE)    
Max Wind Speed 17 mph    
Max Gust Speed 26 mph    
Visibility 10 miles    
Events      
Averages and records for this station are not official NWS values.
T = Trace of Precipitation, MM = Missing Value Source: NWS Daily Summary

Daily Weather History Graph

Daily Weather History Graph

Search for Another Location

Airport or City:

Trip Planner

Search our weather history database for the weather conditions in past years. The results will help you decide how hot, cold, wet, or windy it might be!

Date:

Astronomy

Jan. 08, 2014 Rise Set
Actual Time 7:36 AM CST 5:48 PM CST
Civil Twilight 7:10 AM CST 6:15 PM CST
Nautical Twilight 6:39 AM CST 6:45 PM CST
Astronomical Twilight 6:10 AM CST 7:14 PM CST
Moon 12:30 PM CST (1/8) 12:56 AM CST (1/8)
Length of Visible Light 11h 05m
Length of Day
10h 11m
First Quarter, 56% of the Moon is Illuminated
Jan 8
First Quarter
Jan 15
Full
Jan 23
Last Quarter
Jan 30
New
Feb 6
First Quarter

Hourly Weather History & Observations

Time (CST) Temp. Windchill Dew Point Humidity Pressure Visibility Wind Dir Wind Speed Gust Speed Precip Events Conditions
12:15 AM 39.2 °F 31.2 °F 24.8 °F 56% 30.22 in 10.0 mi South 13.8 mph - N/A   Unknown
12:35 AM 41.0 °F 33.5 °F 24.8 °F 53% 30.21 in 10.0 mi South 13.8 mph - N/A   Unknown
12:55 AM 39.2 °F 30.8 °F 24.8 °F 56% 30.20 in 10.0 mi South 15.0 mph - N/A   Unknown
1:15 AM 39.2 °F 30.5 °F 26.6 °F 61% 30.19 in 10.0 mi South 16.1 mph 21.9 mph N/A   Unknown
1:35 AM 39.2 °F 30.8 °F 26.6 °F 61% 30.18 in 10.0 mi South 15.0 mph 20.7 mph N/A   Unknown
1:55 AM 39.2 °F 30.5 °F 26.6 °F 61% 30.18 in 10.0 mi South 16.1 mph - N/A   Unknown
2:15 AM 41.0 °F 32.5 °F 28.4 °F 61% 30.18 in 10.0 mi South 17.3 mph 26.5 mph N/A   Unknown
2:35 AM 41.0 °F 32.8 °F 28.4 °F 61% 30.18 in 10.0 mi South 16.1 mph 23.0 mph N/A   Unknown
2:55 AM 39.2 °F 31.2 °F 28.4 °F 65% 30.18 in 10.0 mi South 13.8 mph - N/A   Unknown
3:15 AM 39.2 °F 32.0 °F 30.2 °F 70% 30.18 in 10.0 mi South 11.5 mph - N/A   Unknown
3:35 AM 39.2 °F 32.0 °F 30.2 °F 70% 30.17 in 10.0 mi South 11.5 mph 17.3 mph N/A   Unknown
3:55 AM 39.2 °F 31.2 °F 32.0 °F 75% 30.16 in 10.0 mi SSE 13.8 mph 17.3 mph N/A   Unknown
4:15 AM 39.2 °F 32.5 °F 32.0 °F 75% 30.17 in 10.0 mi South 10.4 mph - N/A   Unknown
4:35 AM 41.0 °F 34.3 °F 32.0 °F 70% 30.16 in 10.0 mi South 11.5 mph - N/A   Unknown
4:55 AM 41.0 °F 33.9 °F 32.0 °F 70% 30.14 in 10.0 mi SSE 12.7 mph - N/A   Unknown
5:15 AM 41.0 °F 34.3 °F 32.0 °F 70% 30.13 in 10.0 mi SSE 11.5 mph 16.1 mph N/A   Unknown
5:35 AM 41.0 °F 34.3 °F 32.0 °F 70% 30.13 in 10.0 mi SSE 11.5 mph 18.4 mph N/A   Unknown
5:55 AM 39.2 °F 33.0 °F 32.0 °F 75% 30.14 in 10.0 mi SSE 9.2 mph - N/A   Unknown
6:15 AM 39.2 °F 33.0 °F 32.0 °F 75% 30.14 in 10.0 mi SSE 9.2 mph - N/A   Unknown
6:35 AM 39.2 °F 33.6 °F 32.0 °F 75% 30.14 in 10.0 mi SSE 8.1 mph - N/A   Unknown
6:55 AM 41.0 °F 35.2 °F 33.8 °F 76% 30.13 in 10.0 mi SSE 9.2 mph - N/A   Unknown
7:15 AM 41.0 °F 35.8 °F 33.8 °F 76% 30.13 in 10.0 mi SSE 8.1 mph - N/A   Unknown
7:35 AM 41.0 °F 35.8 °F 35.6 °F 81% 30.14 in 10.0 mi SSE 8.1 mph - N/A   Unknown
7:55 AM 41.0 °F 35.8 °F 35.6 °F 81% 30.15 in 10.0 mi SSE 8.1 mph - N/A   Unknown
8:15 AM 41.0 °F 34.3 °F 35.6 °F 81% 30.15 in 10.0 mi SSE 11.5 mph - N/A   Unknown
8:35 AM 41.0 °F 34.3 °F 37.4 °F 87% 30.14 in 10.0 mi SSE 11.5 mph - N/A   Unknown
8:55 AM 41.0 °F 33.9 °F 37.4 °F 87% 30.14 in 10.0 mi SSE 12.7 mph - N/A   Unknown
9:15 AM 42.8 °F 38.0 °F 37.4 °F 81% 30.16 in 10.0 mi South 8.1 mph - N/A   Unknown
9:35 AM 42.8 °F 37.5 °F 37.4 °F 81% 30.16 in 10.0 mi South 9.2 mph - N/A   Unknown
9:55 AM 44.6 °F 38.8 °F 37.4 °F 76% 30.15 in 10.0 mi SSE 11.5 mph - N/A   Unknown
10:15 AM 44.6 °F 38.8 °F 39.2 °F 81% 30.15 in 10.0 mi SSE 11.5 mph - N/A   Unknown
10:35 AM 44.6 °F 39.2 °F 39.2 °F 81% 30.16 in 10.0 mi South 10.4 mph - N/A   Unknown
10:55 AM 44.6 °F 39.7 °F 39.2 °F 81% 30.14 in 10.0 mi SSE 9.2 mph - N/A   Unknown
11:15 AM 46.4 °F 40.1 °F 39.2 °F 76% 30.13 in 10.0 mi SSE 15.0 mph - N/A   Unknown
11:35 AM 48.2 °F - 41.0 °F 76% 30.12 in 10.0 mi South 13.8 mph - N/A   Unknown
11:55 AM 50.0 °F - 41.0 °F 71% 30.10 in 10.0 mi South 10.4 mph - N/A   Unknown
12:15 PM 50.0 °F - 41.0 °F 71% 30.10 in 10.0 mi SSE 8.1 mph - N/A   Unknown
12:35 PM 51.8 °F - 41.0 °F 67% 30.09 in 10.0 mi SSE 9.2 mph - N/A   Unknown
12:55 PM 55.4 °F - 42.8 °F 63% 30.07 in 10.0 mi SSE 9.2 mph - N/A   Unknown
1:15 PM 59.0 °F - 44.6 °F 59% 30.06 in 10.0 mi South 17.3 mph 23.0 mph N/A   Unknown
1:35 PM 59.0 °F - 44.6 °F 59% 30.04 in 10.0 mi SSW 17.3 mph - N/A   Unknown
1:55 PM 59.0 °F - 44.6 °F 59% 30.03 in 10.0 mi SSW 17.3 mph 21.9 mph N/A   Unknown
2:15 PM 59.0 °F - 44.6 °F 59% 30.03 in 10.0 mi SW 15.0 mph - N/A   Unknown
2:35 PM 60.8 °F - 42.8 °F 52% 30.03 in 10.0 mi South 17.3 mph - N/A   Unknown
2:55 PM 60.8 °F - 42.8 °F 52% 30.02 in 10.0 mi SSW 16.1 mph 20.7 mph N/A   Unknown
3:15 PM 60.8 °F - 42.8 °F 52% 30.02 in 10.0 mi South 15.0 mph 24.2 mph N/A   Unknown
3:35 PM 62.6 °F - 44.6 °F 52% 30.02 in 10.0 mi South 12.7 mph 19.6 mph N/A   Unknown
3:55 PM 62.6 °F - 42.8 °F 48% 30.03 in 10.0 mi SSW 17.3 mph 20.7 mph N/A   Unknown
4:15 PM 62.6 °F - 42.8 °F 48% 30.02 in 10.0 mi SSW 12.7 mph 20.7 mph N/A   Unknown
4:35 PM 62.6 °F - 44.6 °F 52% 30.02 in 10.0 mi SSW 13.8 mph 19.6 mph N/A   Unknown
4:55 PM 59.0 °F - 44.6 °F 59% 30.03 in 10.0 mi SSW 8.1 mph - N/A   Unknown
5:15 PM 57.2 °F - 42.8 °F 59% 30.03 in 10.0 mi South 3.5 mph - N/A   Unknown
5:35 PM 57.2 °F - 44.6 °F 63% 30.03 in 10.0 mi SSE 5.8 mph - N/A   Unknown
5:55 PM 55.4 °F - 46.4 °F 72% 30.03 in 10.0 mi SSE 13.8 mph - N/A   Unknown
6:15 PM 55.4 °F - 46.4 °F 72% 30.04 in 10.0 mi SSE 9.2 mph - N/A   Unknown
6:35 PM 53.6 °F - 46.4 °F 77% 30.05 in 10.0 mi SSE 9.2 mph - N/A   Unknown
6:55 PM 53.6 °F - 46.4 °F 77% 30.06 in 10.0 mi SSE 8.1 mph - N/A   Unknown
7:15 PM 51.8 °F - 46.4 °F 82% 30.07 in 10.0 mi SSE 6.9 mph - N/A   Unknown
7:35 PM 50.0 °F - 46.4 °F 87% 30.08 in 10.0 mi SSE 6.9 mph - N/A   Unknown
7:55 PM 50.0 °F - 46.4 °F 87% 30.09 in 10.0 mi SSE 6.9 mph - N/A   Unknown
8:15 PM 50.0 °F - 46.4 °F 87% 30.10 in 10.0 mi SSE 8.1 mph - N/A   Unknown
8:35 PM 48.2 °F - 46.4 °F 93% 30.11 in 10.0 mi SSE 6.9 mph - N/A   Unknown
8:55 PM 48.2 °F - 44.6 °F 87% 30.12 in 10.0 mi SSE 3.5 mph - N/A   Unknown
9:15 PM 48.2 °F - 44.6 °F 87% 30.13 in 10.0 mi South 3.5 mph - N/A   Unknown
9:35 PM 44.6 °F 42.2 °F 42.8 °F 93% 30.13 in 10.0 mi SE 4.6 mph - N/A   Unknown
9:55 PM 46.4 °F 45.2 °F 44.6 °F 93% 30.13 in 10.0 mi ESE 3.5 mph - N/A   Unknown
10:15 PM 42.8 °F 39.3 °F 41.0 °F 93% 30.12 in 10.0 mi SE 5.8 mph - N/A   Unknown
10:35 PM 44.6 °F 42.2 °F 44.6 °F 100% 30.12 in 10.0 mi SSE 4.6 mph - N/A   Unknown
10:55 PM 44.6 °F - 44.6 °F 100% 30.12 in 10.0 mi Calm Calm - N/A   Unknown
11:15 PM 44.6 °F 40.7 °F 44.6 °F 100% 30.11 in 10.0 mi SE 6.9 mph - N/A   Unknown
11:35 PM 44.6 °F - 44.6 °F 100% 30.13 in 10.0 mi Calm Calm - N/A   Unknown
11:55 PM 44.6 °F - 42.8 °F 93% 30.12 in 10.0 mi Calm Calm - N/A   Unknown